CAPE
198 240 311 13 13 9 0 0 297 288 298 293 467 159 0 48 262 18 47 649 1352 1157 1170 1773 1657 1644 1457 1673 1694 1757 1600 1173 1573 2026 2023 1845 2013 1927 1871 1468 1525 1476 1240
214 171 316 269 247 173 274 314 233 252 285 381 381 86 33 288 221 111 68 182 1229 1373 1145 1539 1385 1523 1404 1549 1772 1707 1347 1675 1192 2017 2328 2422 2290 2071 1674 1316 1249 1365 1396
414 210 100 135 216 318 431 390 326 262 252 467 275 408 267 368 143 139 48 37 696 1507 1885 1551 1551 1695 1547 1528 1750 1791 1298 2089 1305 2167 2551 2486 2256 2277 2324 1989 1496 1205 1123
592 352 294 390 484 455 528 529 403 168 388 695 405 273 426 407 477 183 14 145 518 669 1578 1794 1996 2004 1751 1527 1620 1975 1414 2398 2595 2095 2448 2067 2014 2390 2382 2404 2289 2221 1926
81 414 323 416 551 274 532 668 565 286 428 425 190 345 423 554 578 436 197 14 53 179 360 1051 976 1596 1266 1432 1561 2090 1942 2327 2586 2662 2378 2340 2440 2492 2533 2272 2165 1996 2004
239 688 629 686 679 494 381 440 291 467 613 375 709 4 159 264 628 339 363 303 0 0 13 151 858 815 1541 1721 2233 2394 2048 2347 2359 2598 2715 2503 2307 2302 2440 2468 2447 2244 2022
454 362 559 735 799 567 364 388 312 396 551 480 143 152 177 492 609 635 495 211 222 7 0 0 78 684 1051 1693 2206 2616 2384 2193 2463 2583 2796 2642 2708 2489 2184 2073 2100 2116 2058
552 510 637 995 720 579 495 503 440 380 531 556 206 62 238 347 585 884 604 550 505 301 226 112 108 298 557 677 1265 2251 2637 2840 2657 2386 2646 2659 2593 2506 2572 2150 1866 1893 1900
1025 756 745 1250 531 304 268 394 403 415 271 345 400 179 39 55 137 379 741 625 539 320 254 454 202 192 144 452 786 1410 1890 2292 2809 2858 2786 2704 2566 2504 2389 2279 2098 2018 1952
982 1310 1202 1178 579 281 370 311 674 464 372 254 225 675 454 171 306 320 397 610 543 706 533 567 361 428 344 252 442 673 1077 1707 2312 2805 2964 2903 2697 2612 2541 2286 2063 1856 1706
956 783 1051 781 745 319 346 344 406 581 659 539 366 454 536 718 513 150 214 370 750 597 553 405 464 337 433 410 275 373 836 1325 1575 2111 2396 2729 2887 2842 2397 2593 2384 2118 1947
740 846 768 645 578 481 490 476 506 397 490 962 833 440 474 272 115 291 149 221 426 510 590 836 623 558 386 388 740 1065 1129 1079 1058 1236 1566 1901 2334 2741 2772 2626 2780 2654 2438
987 1048 715 573 350 576 576 473 507 635 704 638 765 721 776 744 450 408 340 195 225 361 755 751 676 626 639 474 552 1329 1593 924 892 838 953 1128 1440 1791 2057 2386 2519 2730 2859
624 612 880 717 478 703 818 588 765 977 855 922 902 1205 1136 978 888 741 357 174 135 118 501 620 792 775 589 623 671 1184 1287 867 743 595 490 540 674 830 1091 1382 1588 1856 2197
749 495 13 8 384 545 686 1053 924 739 948 819 913 1132 1219 1279 1036 854 1450 234 125 218 106 612 858 708 806 1038 853 900 729 980 531 395 250 188 221 319 507 724 876 1034 1201
1058 1223 16 11 605 752 806 811 938 990 904 904 858 960 790 829 1083 1158 1061 1188 273 172 245 534 1021 519 915 909 594 1165 1202 1368 356 267 133 32 34 98 189 280 348 401 442
1580 1662 1599 1314 1031 1000 1212 1172 1079 1229 1056 900 972 1183 1141 897 880 1167 1310 1041 1097 702 356 808 662 750 23 8 409 1105 1341 1331 1011 345 116 21 0 0 3 37 61 62 82
1958 1934 1856 1733 1590 1117 1303 1287 1380 1639 1390 1221 1138 1115 1121 1476 1150 1398 1146 1024 1252 1399 875 701 1116 845 468 621 1447 1274 1756 2685 1221 1709 199 17 0 0 0 0 0 0 0
1430 1557 1440 1659 1716 1684 1436 1396 1351 1327 1205 1422 1365 1299 1237 1399 1367 1290 1234 1419 957 851 982 798 563 715 847 792 808 788 1129 1320 1087 859 670 541 221 0 0 0 0 0 0
346 473 626 528 101 16 34 291 747 1052 940 1016 844 794 1191 1265 1089 1006 1214 1378 1197 1021 783 791 761 844 835 830 816 665 601 464 487 749 1063 1069 726 98 0 0 0 0 0
473 395 302 5 0 0 0 0 0 53 75 256 362 654 78 6 0 1 49 15 97 410 555 608 545 497 328 55 195 277 352 198 296 390 115 66 101 159 121 205 0 0 0
291 174 9 0 0 0 0 0 0 0 0 0 8 28 0 0 0 0 0 0 0 0 0 0 0 0 0 47 5 134 66 96 61 0 0 0 0 0 0 0 0 65 0
220 141 103 0 0 0 0 0 0 0 0 0 0 0 0 0 0 0 0 0 0 0 0 0 0 0 0 0 0 0 0 0 0 0 0 0 0 0 0 0 0 0 0
216 90 56 0 0 0 0 0 0 0 0 0 0 0 0 0 0 0 0 0 0 0 0 0 0 0 0 0 0 0 0 0 0 0 0 0 0 0 0 0 2 6 16
82 53 10 0 0 0 0 0 0 0 0 0 0 0 0 0 0 0 0 0 0 0 0 0 0 0 0 0 0 0 0 0 0 0 0 0 0 0 0 0 0 12 19
23 10 0 0 0 0 0 0 0 0 0 0 0 0 0 0 0 0 0 0 0 0 0 0 0 0 0 0 0 0 0 0 0 0 0 0 0 0 0 0 0 0 0
CIN
-59 -54 -52 -102 -146 -39 0 0 -52 -91 -90 -88 -59 -108 0 -145 -40 -124 -103 -26 -5 -3 -3 0 0 0 0 0 0 0 0 -5 0 0 0 0 0 0 0 0 0 -1 0
-66 -81 -71 -61 -51 -50 -49 -34 -70 -81 -85 -66 -54 -133 -185 -90 -96 -81 -112 -47 -5 -3 -3 0 0 0 0 0 0 0 -1 0 -5 0 0 0 0 0 -1 -4 -1 0 0
-59 -87 -119 -116 -84 -68 -62 -66 -72 -92 -93 -55 -53 -49 -76 -74 -105 -64 -77 -121 -9 -4 -1 0 0 0 0 0 0 0 -2 0 -5 0 0 0 0 0 0 -2 -4 -4 -9
-87 -106 -117 -105 -74 -73 -66 -58 -77 -77 -83 -60 -73 -62 -35 -65 -55 -56 -119 -84 -33 -12 -1 0 0 0 0 0 0 0 -1 0 0 0 0 0 0 0 0 0 0 0 0
-194 -109 -125 -123 -90 -109 -70 -47 -57 -64 -71 -67 -75 -73 -63 -42 -44 -37 -66 -138 -109 -62 -37 -7 -11 -1 0 0 -1 0 0 0 0 0 0 0 0 0 0 0 0 -1 0
-155 -84 -88 -90 -77 -77 -69 -52 -46 -73 -52 -67 -38 -64 -143 -96 -43 -72 -47 -57 0 0 -152 -103 -23 -28 -1 0 0 0 0 0 0 0 0 0 0 0 0 0 0 0 0
-112 -129 -77 -65 -54 -65 -60 -48 -43 -41 -44 -65 -109 -107 -102 -76 -48 -65 -68 -57 -70 -119 0 0 -184 -46 -26 -2 0 0 0 0 0 0 0 0 0 0 0 -1 -1 0 0
-97 -111 -77 -41 -74 -49 -44 -38 -31 -39 -65 -45 -104 -99 -31 -34 -31 -27 -53 -51 -43 -48 -47 -114 -165 -100 -72 -57 -23 0 0 0 0 0 0 0 0 0 0 -3 -10 -3 -1
-50 -84 -72 -24 -73 -56 -79 -54 -44 -68 -62 -84 -103 -83 -84 -62 -68 -53 -41 -54 -49 -63 -51 -37 -103 -126 -152 -100 -65 -25 -10 -3 0 0 0 0 0 0 0 0 -5 -7 -5
-50 -52 -40 -37 -55 -54 -54 -67 -53 -46 -70 -78 -99 -59 -81 -118 -55 -46 -65 -48 -46 -35 -48 -48 -66 -50 -70 -131 -115 -99 -64 -32 -3 0 0 0 0 0 0 0 0 -6 -17
-50 -56 -42 -54 -40 -78 -67 -58 -49 -41 -49 -44 -74 -85 -67 -69 -84 -123 -61 -62 -48 -54 -70 -61 -70 -71 -65 -105 -133 -136 -98 -71 -45 -12 -1 0 0 0 0 0 0 -4 -12
-64 -58 -56 -51 -54 -56 -46 -62 -51 -69 -42 -31 -40 -72 -60 -79 -128 -94 -104 -90 -74 -93 -79 -78 -82 -80 -109 -107 -69 -63 -87 -107 -112 -98 -73 -41 -8 0 0 0 0 0 0
-40 -72 -82 -72 -88 -41 -42 -59 -53 -49 -36 -34 -33 -47 -54 -68 -117 -126 -80 -122 -99 -87 -69 -103 -114 -84 -92 -104 -76 -58 -71 -117 -139 -149 -132 -110 -76 -38 -12 0 0 0 0
-96 -76 -59 -82 -89 -41 -36 -46 -37 -26 -32 -43 -35 -35 -43 -51 -70 -93 -96 -138 -106 -131 -108 -74 -115 -111 -117 -112 -109 -107 -78 -132 -174 -214 -231 -219 -183 -142 -107 -74 -47 -19 -1
-95 -80 -258 -185 -48 -51 -52 -41 -38 -43 -35 -44 -45 -42 -35 -51 -77 -64 -55 -142 -201 -137 -150 -90 -78 -133 -135 -106 -152 -95 -99 -135 -232 -264 -305 -325 -322 -280 -222 -179 -151 -123 -90
-45 -73 -248 -312 -49 -8 -39 -59 -40 -33 -32 -44 -50 -40 -63 -59 -67 -78 -73 -63 -145 -109 -59 -81 -81 -224 -181 -166 -152 -131 -85 -119 -247 -277 -342 -446 -452 -395 -345 -294 -259 -238 -212
-39 -27 -29 -43 -40 -51 -38 -35 -30 -22 -29 -41 -44 -25 -32 -53 -63 -68 -75 -86 -77 -98 -83 -89 -131 -134 -108 -98 -204 -149 -101 -74 -103 -245 -339 -399 0 0 -121 -402 -383 -377 -352
-28 -23 -15 -17 -21 -46 -38 -41 -29 -19 -15 -25 -31 -29 -27 -38 -47 -56 -84 -86 -78 -75 -82 -85 -74 -89 -112 -208 -129 -74 -51 -36 -69 -29 -293 -431 0 0 0 0 0 0 0
-39 -22 -27 -18 -15 -17 -22 -28 -36 -21 -28 -18 -17 -20 -28 -24 -28 -46 -59 -56 -91 -91 -88 -99 -104 -94 -86 -99 -77 -96 -75 -63 -73 -60 -117 -117 -233 0 0 0 0 0 0
-113 -93 -80 -153 -304 -180 -160 -186 -59 -21 -24 -26 -38 -39 -21 -16 -22 -30 -23 -24 -46 -65 -85 -84 -89 -83 -71 -70 -64 -61 -71 -125 -108 -68 -44 -44 -94 -189 0 0 0 0 0
-142 -137 -165 -50 0 0 0 0 0 -253 -190 -106 -81 -45 -265 -85 0 -32 -392 -516 -383 -136 -79 -65 -82 -90 -107 -316 -156 -116 -82 -130 -122 -151 -324 -316 -275 -229 -217 -200 0 0 0
-195 -222 -330 0 0 0 0 0 0 0 0 0 -257 -301 0 0 0 0 0 0 0 0 0 0 0 0 0 -243 -356 -167 -255 -188 -165 -2 0 0 0 0 0 0 0 -217 0
-240 -256 -367 0 0 0 0 0 0 0 0 0 0 0 0 0 0 0 0 0 0 0 0 0 0 0 0 0 0 0 0 0 0 0 0 0 0 0 0 0 0 0 0
-228 -269 -371 0 0 0 0 0 0 0 0 0 0 0 0 0 0 0 0 0 0 0 0 0 0 0 0 0 0 0 0 0 0 0 0 0 0 0 0 0 -37 -117 -116
-236 -247 -380 0 0 0 0 0 0 0 0 0 0 0 0 0 0 0 0 0 0 0 0 0 0 0 0 0 0 0 0 0 0 0 0 0 0 0 0 0 -9 -140 -96
-201 -227 0 0 0 0 0 0 0 0 0 0 0 0 0 0 0 0 0 0 0 0 0 0 0 0 0 0 0 0 0 0 0 -1 -4 0 0 0 0 0 0 0 0
Wind_Speed
3 1 1 2 2 2 4 4 4 5 4 5 4 6 4 3 1 3 4 17 14 15 15 16 15 14 13 13 13 13 11 10 9 10 10 10 9 8 7 7 6 7 6
3 2 1 2 3 3 3 2 3 3 4 4 5 7 5 7 6 4 4 9 17 17 17 16 16 14 13 12 13 12 11 10 10 9 9 9 9 9 9 7 5 4 4
5 3 1 3 3 3 4 2 4 4 3 2 4 5 4 6 6 9 4 5 9 17 16 17 15 14 13 14 13 13 11 11 11 10 9 8 8 8 8 9 7 5 4
6 4 3 3 3 3 2 2 4 4 3 3 2 4 2 5 7 6 8 6 4 7 13 15 14 12 14 14 13 12 12 12 11 11 10 10 10 9 8 7 9 7 6
5 4 4 4 4 3 3 4 3 3 3 3 3 1 2 2 6 6 9 8 7 6 6 13 13 12 15 15 14 14 14 12 12 11 11 10 10 9 9 8 8 7 7
5 4 3 4 3 3 4 3 3 4 3 4 3 3 2 3 4 6 8 7 8 9 8 8 9 9 15 14 14 14 15 14 13 13 12 12 11 10 9 9 9 9 9
6 5 4 4 3 6 5 3 3 3 3 4 3 2 2 4 5 3 5 7 9 9 13 11 7 6 8 16 15 16 17 17 17 16 15 14 13 12 12 11 11 11 11
6 5 5 5 5 4 5 4 3 2 3 3 3 2 2 2 2 3 3 6 7 8 7 11 11 10 9 8 11 17 17 17 18 18 16 15 15 14 14 14 14 14 14
6 6 6 5 4 2 3 5 5 6 3 2 2 5 2 3 2 1 5 5 5 5 5 8 11 12 11 9 13 16 20 18 20 20 19 18 17 16 15 15 15 15 14
6 6 7 6 5 3 6 5 4 4 4 4 3 3 1 4 3 1 1 4 5 6 6 4 8 10 9 9 15 17 20 19 21 21 21 20 19 19 18 17 17 16 16
5 5 5 4 5 6 6 6 5 5 4 3 3 2 1 2 2 2 1 2 1 4 5 8 6 7 7 9 9 12 20 21 21 21 21 21 20 20 21 20 19 18 18
4 6 6 5 4 4 6 5 5 6 6 3 2 3 3 4 2 2 1 2 4 4 6 6 7 7 6 7 11 15 21 22 23 23 23 22 22 21 22 22 21 21 21
4 6 5 5 3 6 7 6 5 5 5 3 4 3 2 3 4 4 4 3 3 3 3 3 7 8 7 7 9 15 19 23 22 22 22 21 21 21 21 21 21 22 22
5 3 6 6 6 7 5 6 3 3 4 4 4 3 3 3 2 3 4 4 1 3 3 6 4 6 6 7 9 14 7 20 21 20 21 21 20 20 20 20 20 20 20
6 3 6 2 4 5 6 7 4 4 2 3 5 4 2 3 3 3 4 5 5 4 4 4 3 5 5 5 7 5 6 12 16 19 19 19 19 20 20 20 20 19 19
5 3 6 5 2 5 5 5 4 4 5 3 3 5 4 3 4 3 1 2 4 4 3 4 4 5 6 4 7 7 10 11 16 17 18 19 20 20 19 19 19 19 19
5 4 5 5 4 3 5 4 4 5 5 5 4 4 6 5 4 2 2 1 3 2 3 2 2 3 1 4 6 7 6 5 5 16 15 17 18 18 18 18 19 19 18
5 5 5 4 3 4 3 4 4 4 5 4 5 3 4 3 4 2 2 1 2 2 1 1 2 2 6 5 4 1 4 3 0 6 12 15 16 17 17 17 15 15 15
5 5 6 5 4 5 4 2 3 3 3 2 3 4 4 4 3 0 1 2 0 1 0 2 2 1 1 1 2 0 3 3 3 7 10 12 12 14 16 15 17 17 18
6 5 5 7 8 7 7 6 4 2 2 2 2 2 2 2 1 1 0 1 1 0 0 1 1 2 1 2 0 2 3 2 3 4 5 4 6 8 12 15 14 16 16
6 4 6 9 7 8 6 6 6 6 5 3 1 5 5 7 8 7 3 4 4 2 2 1 2 2 2 3 2 2 1 2 3 2 3 3 3 3 4 7 11 13 16
6 6 9 8 7 6 8 10 8 5 5 3 5 6 8 10 8 11 10 7 3 2 2 1 1 2 2 1 2 2 2 3 3 2 4 5 1 4 5 4 9 11 14
5 6 9 8 7 5 9 8 7 4 3 5 5 6 7 6 8 6 8 9 8 1 4 3 2 2 2 2 1 1 0 1 2 5 2 3 2 4 6 5 10 10 9
6 5 8 8 7 4 8 8 9 6 3 5 7 7 7 5 5 5 5 5 6 5 4 4 4 3 4 3 3 3 3 3 2 3 2 1 3 3 4 4 10 13 14
5 3 7 7 8 4 6 8 6 5 5 5 6 5 7 6 4 6 3 3 4 3 5 7 4 3 3 2 5 2 2 3 2 2 4 1 3 4 3 2 4 9 11
5 5 5 8 10 5 6 7 6 3 5 4 5 6 9 6 4 5 3 3 4 2 4 6 5 3 1 6 5 2 1 1 1 2 2 3 2 3 5 3 4 5 5
Wind_Direction
232 77 109 191 230 227 232 261 171 158 175 213 197 159 223 247 200 176 172 177 176 179 184 166 168 167 168 166 161 163 161 161 161 160 155 149 148 138 131 132 129 114 110
151 97 357 316 275 252 260 240 178 167 190 177 171 197 181 158 223 180 166 176 173 179 176 170 170 173 172 170 167 167 170 172 171 160 163 160 160 164 163 155 156 145 137
160 164 229 277 272 264 266 256 154 147 176 194 231 200 196 181 201 161 164 172 184 173 176 170 171 175 177 174 177 175 177 177 172 179 178 167 176 185 177 170 181 186 176
153 173 222 246 260 288 280 226 154 178 175 203 226 255 213 216 188 167 166 173 169 171 175 173 169 176 184 180 180 183 188 178 181 184 185 189 192 199 202 195 196 196 190
197 172 221 245 265 265 270 261 171 174 169 205 230 69 32 206 190 192 165 177 173 172 178 188 187 185 191 189 188 190 192 191 195 195 195 200 203 203 216 211 212 219 220
194 182 219 244 248 261 258 252 173 210 185 179 157 265 237 270 228 181 182 175 187 186 183 189 191 194 202 204 195 196 200 201 200 201 204 205 210 213 218 223 225 230 237
196 204 214 236 209 256 232 213 174 211 249 188 126 325 328 233 224 195 170 184 185 196 198 193 191 190 200 212 205 203 205 207 205 207 207 208 212 215 216 220 228 232 235
210 208 206 227 226 229 236 216 182 229 235 192 131 133 142 310 278 235 181 180 191 195 191 183 183 190 190 202 207 207 209 210 210 211 217 218 218 217 218 219 220 225 231
223 205 217 224 221 194 248 224 197 188 188 330 163 149 138 208 134 255 202 185 190 193 193 172 185 190 194 194 207 213 211 210 212 214 215 216 222 226 226 226 227 230 235
230 219 223 229 180 193 222 215 203 199 140 158 264 216 144 147 152 153 270 205 199 195 194 195 188 197 191 191 199 204 213 212 214 215 218 220 220 222 226 229 231 233 236
233 243 206 205 201 200 206 200 205 206 189 171 199 107 133 23 109 97 171 233 181 203 198 204 196 200 204 185 196 204 209 211 215 219 223 225 226 227 230 232 233 235 238
242 227 209 217 236 252 182 204 209 220 200 158 226 177 164 173 182 135 155 238 202 231 210 204 202 207 203 198 201 200 206 209 213 217 219 223 226 230 233 237 238 238 239
236 213 201 206 224 223 203 189 199 209 182 171 206 199 200 206 167 132 129 248 176 243 221 207 206 207 206 203 217 214 206 206 210 215 218 222 225 229 234 237 241 245 247
297 250 221 198 217 215 183 177 180 185 180 189 219 242 212 231 201 144 174 157 115 25 232 237 212 199 201 207 217 205 191 205 210 213 215 217 221 225 230 236 240 243 247
236 218 100 24 319 266 190 170 173 197 178 211 220 233 223 259 263 210 191 150 148 168 241 222 198 211 170 185 204 228 226 205 203 212 216 217 219 221 223 226 231 235 239
182 184 156 143 265 211 202 174 158 181 198 233 226 240 239 262 281 303 356 136 172 171 221 218 232 191 190 180 210 216 218 205 204 219 216 221 222 225 226 227 230 231 234
173 165 174 183 183 134 153 142 168 195 203 220 240 218 230 234 262 326 354 34 83 149 174 260 151 192 161 188 236 227 228 208 213 225 225 226 229 229 228 229 232 233 235
182 177 161 149 138 137 150 156 170 173 203 219 224 235 254 258 257 291 317 293 105 29 111 21 323 100 224 207 267 177 231 251 56 243 227 236 234 229 229 233 236 239 240
101 120 102 125 148 155 146 143 142 156 188 167 195 201 214 208 255 262 281 298 34 123 91 144 264 310 159 121 63 330 258 255 258 248 211 229 234 229 227 232 232 233 236
90 87 93 76 78 64 48 43 52 149 152 157 170 157 120 129 133 41 215 70 27 56 293 264 189 230 230 302 83 227 284 291 287 286 291 291 253 251 247 242 244 241 239
96 92 97 91 82 72 45 22 25 40 97 76 24 130 90 83 82 66 81 41 54 62 53 42 9 12 32 27 47 328 232 313 315 37 12 0 354 342 305 262 250 249 246
93 99 100 92 78 70 47 44 42 12 341 64 83 77 67 50 48 48 31 20 44 74 34 62 36 52 342 62 32 18 26 29 332 346 22 311 0 306 290 289 267 249 254
117 101 109 102 90 75 43 32 27 41 14 96 84 99 84 61 50 29 7 4 6 175 174 159 183 211 146 193 119 23 59 182 239 283 27 292 296 299 297 293 291 306 284
132 124 118 114 103 60 46 24 7 28 13 100 93 107 106 85 50 37 5 355 342 337 291 231 205 198 144 190 173 191 227 247 270 291 23 303 351 315 323 341 19 16 4
113 115 122 116 103 71 35 32 43 27 31 95 85 111 118 101 61 27 10 323 314 348 355 49 121 181 232 223 197 118 336 42 326 308 0 131 331 328 314 329 352 28 4
139 110 109 113 123 119 47 38 41 46 33 91 86 64 92 112 91 48 35 2 350 354 350 337 326 321 334 67 127 119 111 51 352 340 277 34 355 31 323 304 348 353 356